Tracking 30160 objects as of 13-Feb-2025
HD Live streaming from Space Station
objects crossing your sky now

ATLAS 5 CENTAUR DEB

Track ATLAS 5 CENTAUR DEB now!


NORAD ID: 44003
Int'l Code: 2014-055BJ
Perigee: 8,944.6 km
Apogee: 35,122.4 km
Inclination: 19.9 °
Period: 794.0 minutes
Semi major axis: 28404 km
RCS: Unknown
Launch date: September 17, 2014
Source: United States (US)
Launch site: AIR FORCE EASTERN TEST RANGE (AFETR)

Note: This is SATELLITE DEBRIS
Your satellite tracking list
Your tracking list is empty




NASA's NSSDC Master Catalog

Two Line Element Set (TLE):
1 44003U 14055BJ  25043.40038256 -.00000033  00000-0  00000-0 0  9995
2 44003  19.9018 222.3526 4608039  32.0789 349.1309  1.81352022 42573
Source of the keplerian elements: AFSPC